Hourly Data Report for October 15, 2013

All times are specified in Local Standard Time (LST). Add 1 hour to adjust for Daylight Saving Time where and when it is observed.

HALL BEACH A
NUNAVUT

68°46'33.000" N
81°14'33.000" W
9.10 m
2402354
71293
YUX

Download Data

Hourly Data (October 2013)
Hourly Data Report for October 15, 2013
Temp Definition
°C
Dew Point Temp Definition
°C
Rel Hum Definition
%
Wind Dir Definition
10's deg

Wind Spd Definition
km/h
Visibility Definition
km
Stn Press Definition
kPa
Hmdx Definition


Wind Chill Definition


Weather Definition


TIME
00:00 Legend Double Dagger -0.5 -1.1 96 17 21 16.1 100.34   -6 LegendNANA
01:00 Legend Double Dagger -0.7 -1.1 97 16 13 4.0 100.36   -5 LegendNANA
02:00 Legend Double Dagger -1.6 -1.9 98 15 11 2.0 100.39   -5 LegendNANA
03:00 Legend Double Dagger -1.8 -1.9 99 17 8 0.6 100.39   -5 LegendNANA
04:00 Legend Double Dagger -1.7 -2.0 98 12 9 0.6 100.38   -5 LegendNANA
05:00 Legend Double Dagger -2.1 -2.2 99 8 5 6.4 100.38   -4 LegendNANA
06:00 Legend Double Dagger -1.5 -1.6 99 6 8 2.0 100.38   -5 LegendNANA
07:00 Legend Double Dagger -1.1 -1.2 99 8 15 1.2 100.36   -6 LegendNANA
08:00 Legend Double Dagger -1.0 -1.1 99 7 17 1.2 100.32   -6 LegendNANA
09:00 Legend Double Dagger -0.9 -1.0 99 10 17 2.0 100.30   -6 LegendNANA
10:00 Legend Double Dagger -0.8 -0.9 99 10 17 6.4 100.26   -6 LegendNANA
11:00 Legend Double Dagger -0.7 -0.9 99 10 15 4.0 100.22   -5 LegendNANA
12:00
13:00
14:00 Legend Double Dagger -0.6 -0.9 98 11 18 6.4 100.14   -6 LegendNANA
15:00 Legend Double Dagger -0.7 -1.0 98 10 18 4.0 100.10   -6 LegendNANA
16:00
17:00 Legend Double Dagger -0.6 -0.9 98 11 21 4.8 100.04   -6 LegendNANA
18:00 Legend Double Dagger -0.6 -0.9 98 11 22 9.7 100.01   -6 LegendNANA
19:00 Legend Double Dagger -0.8 -1.1 98 12 24 2.4 100.01   -7 LegendNANA
20:00 Legend Double Dagger -0.9 -1.1 99 11 22 2.8 99.98   -7 LegendNANA
21:00 Legend Double Dagger -0.7 -1.0 98 12 24 2.8 99.95   -7 LegendNANA
22:00 Legend Double Dagger -0.7 -1.0 98 13 21 4.8 99.93   -6 LegendNANA
23:00 Legend Double Dagger -0.9 -1.0 99 13 22 2.4 99.92   -7 LegendNANA

Notes on Data Quality.

Legend

  • E = Estimated
  • M = Missing
  • NA = Not Available
  • ‡ = Partner data that is not subject to review by the National Climate Archives
Date modified: